Tracking 25195 objects as of 19-Jan-2022
HD Live streaming from Space Station
objects crossing your sky now

SL-3 R/B

Track SL-3 R/B now!
10-day predictions
SL-3 R/B is classified as:


NORAD ID: 4814
Int'l Code: 1970-113B
Perigee: 443.5 km
Apogee: 475.6 km
Inclination: 81.1 °
Period: 93.6 minutes
Semi major axis: 6830 km
RCS: 6.542 m2 (large)
Launch date: December 18, 1970
Source: Commonwealth of Independent States (former USSR) (CIS)
Launch site: PLESETSK MISSILE AND SPACE COMPLEX (PKMTR)

Note: This is a ROCKET BODY
aabbcc
Your satellite tracking list
Your tracking list is empty




NASA's NSSDC Master Catalog

Two Line Element Set (TLE):
1 04814U 70113B   22018.56521661  .00005646  00000-0  14951-3 0  9998
2 04814  81.1404 179.0281 0023467  71.1068 289.2713 15.37869902792202
Source of the keplerian elements: AFSPC